HIFLY1 KMEM-KBHM

Flight info

Callsign HIFLY1
Flight time N/A
Altitude 25000
Route BBKNG7 KERMI VUZ
Aircraft A343/H-SDE2E3FGHIJ4J5M1RWXY/LB1D1

Departure

Time 2026-05-06 01:00
Airport Memphis International Airport (KMEM)

Arrival

Time N/A
Airport Birmingham-Shuttlesworth International Airport (KBHM)
Time Latitude Longitude Altitude Speed Heading
2026-05-06 00:35 35.03040 -89.96700 308 ft 0 kts 272°
2026-05-06 00:46 35.03047 -89.96731 308 ft 6 kts 298°
2026-05-06 00:47 35.03051 -89.96733 308 ft 0 kts 325°
2026-05-06 00:47 35.03053 -89.96735 308 ft 0 kts 327°
2026-05-06 00:48 35.03054 -89.96735 308 ft 0 kts 328°
2026-05-06 00:48 35.03055 -89.96736 308 ft 0 kts 331°
2026-05-06 00:48 35.03057 -89.96736 308 ft 0 kts 336°
2026-05-06 00:50 35.03059 -89.96737 308 ft 0 kts 336°
2026-05-06 00:51 35.03084 -89.96750 308 ft 11 kts 336°
2026-05-06 00:51 35.03174 -89.96833 310 ft 19 kts 316°
2026-05-06 00:51 35.03297 -89.96863 309 ft 21 kts 360°
2026-05-06 00:52 35.03475 -89.96855 312 ft 25 kts
2026-05-06 00:52 35.03621 -89.96850 313 ft 19 kts 359°
2026-05-06 00:52 35.03770 -89.96886 315 ft 19 kts 322°
2026-05-06 00:52 35.03801 -89.96963 315 ft 2 kts 274°
2026-05-06 00:53 35.03801 -89.96964 315 ft 0 kts 274°
2026-05-06 00:53 35.03804 -89.96987 315 ft 12 kts 281°
2026-05-06 00:53 35.03896 -89.97088 314 ft 27 kts 350°
2026-05-06 00:53 35.04147 -89.97097 315 ft 44 kts
2026-05-06 00:54 35.04415 -89.97070 317 ft 15 kts 11°
2026-05-06 00:54 35.04560 -89.97057 320 ft 23 kts
2026-05-06 00:54 35.04774 -89.97065 323 ft 41 kts 358°
2026-05-06 00:54 35.04982 -89.97064 323 ft 21 kts
2026-05-06 00:55 35.05164 -89.97046 318 ft 23 kts 10°
2026-05-06 00:55 35.05407 -89.96993 309 ft 43 kts
2026-05-06 00:55 35.05520 -89.96970 309 ft 0 kts 11°
2026-05-06 00:55 35.05534 -89.96967 310 ft 2 kts 12°
2026-05-06 00:56 35.05630 -89.96961 309 ft 25 kts 352°
2026-05-06 00:56 35.05666 -89.97096 308 ft 13 kts 269°
2026-05-06 00:56 35.05625 -89.97252 314 ft 27 kts 238°
2026-05-06 00:56 35.05509 -89.97465 326 ft 16 kts 236°
2026-05-06 00:57 35.05501 -89.97478 327 ft 0 kts 233°
2026-05-06 00:58 35.05494 -89.97491 327 ft 6 kts 235°
2026-05-06 00:58 35.05444 -89.97572 327 ft 16 kts 228°
2026-05-06 00:58 35.05348 -89.97614 327 ft 15 kts 181°
2026-05-06 00:59 35.05306 -89.97615 326 ft 13 kts 180°
2026-05-06 00:59 35.05108 -89.97610 319 ft 53 kts 180°
2026-05-06 00:59 35.04555 -89.97599 320 ft 103 kts 179°
2026-05-06 00:59 35.03704 -89.97580 310 ft 142 kts 178°
2026-05-06 01:00 35.02634 -89.97528 606 ft 151 kts 174°
2026-05-06 01:00 35.01604 -89.97474 1193 ft 147 kts 184°
2026-05-06 01:00 35.00560 -89.97407 1705 ft 155 kts 176°
2026-05-06 01:00 34.99442 -89.97269 2143 ft 174 kts 182°
2026-05-06 01:01 34.98167 -89.97170 2533 ft 192 kts 185°